| time (UTC) | temp C | wind direction | speed KPH | gust KPH | rain 1hr cm | rain 24hr cm | rain mn cm | humidity % | barometer mb |
| 20260503050302 | 12 | 338 | 0.0 | 0.0 | 0.00 | 0.00 | 0.00 | 90 | 992.0 |
| 20260503043529 | 12 | 338 | 0.0 | 0.0 | 0.00 | 0.00 | 0.00 | 90 | 991.9 |
| 20260503040301 | 12 | 338 | 0.0 | 0.0 | 0.00 | 0.00 | 0.00 | 90 | 991.9 |
| 20260503033528 | 12 | 68 | 0.0 | 0.0 | 0.00 | 0.00 | 0.00 | 89 | 992.0 |
| 20260503030301 | 12 | 68 | 0.0 | 0.0 | 0.00 | 0.00 | 0.00 | 89 | 992.2 |
| 20260503023528 | 13 | 0 | 0.0 | 0.0 | 0.00 | 0.00 | 0.00 | 89 | 992.1 |
| 20260503020301 | 13 | 135 | 0.0 | 0.0 | 0.00 | 0.00 | 0.00 | 88 | 992.7 |
| 20260503013528 | 13 | 68 | 0.0 | 0.0 | 0.00 | 0.00 | 0.00 | 88 | 992.7 |
| 20260503010300 | 13 | 112 | 0.0 | 0.0 | 0.00 | 0.00 | 0.00 | 88 | 993.1 |
| 20260503003527 | 13 | 45 | 0.0 | 0.0 | 0.00 | 0.00 | 0.00 | 88 | 993.0 |
| 20260503000301 | 14 | 45 | 0.0 | 0.0 | 0.00 | 0.00 | 0.00 | 88 | 993.2 |
| 20260502233528 | 14 | 112 | 0.0 | 0.0 | 0.00 | 0.00 | 0.00 | 87 | 993.3 |
| 20260502230301 | 15 | 112 | 0.0 | 0.0 | 0.00 | 0.00 | 0.00 | 87 | 993.2 |
| 20260502224331 | 15 | 112 | 0.0 | 0.0 | 0.00 | 0.00 | 0.00 | 87 | 993.3 |
| 20260502223527 | 15 | 112 | 0.0 | 0.0 | 0.00 | 0.00 | 0.00 | 87 | 993.3 |
| 20260502214330 | 15 | 135 | 0.0 | 0.0 | 0.00 | 0.00 | 0.00 | 87 | 993.1 |
| 20260502213527 | 15 | 135 | 0.0 | 0.0 | 0.00 | 0.00 | 0.00 | 87 | 993.1 |
| 20260502204329 | 15 | 68 | 0.0 | 0.0 | 0.00 | 0.00 | 0.00 | 85 | 993.0 |
| 20260502203526 | 15 | 68 | 0.0 | 0.0 | 0.00 | 0.00 | 0.00 | 85 | 993.0 |
| 20260502194329 | 16 | 158 | 0.0 | 0.0 | 0.00 | 0.00 | 0.00 | 85 | 992.7 |
| 20260502193526 | 16 | 158 | 0.0 | 0.0 | 0.00 | 0.00 | 0.00 | 84 | 992.7 |
| 20260502184330 | 17 | 158 | 0.0 | 0.0 | 0.00 | 0.00 | 0.00 | 83 | 992.6 |
| 20260502183527 | 17 | 158 | 0.0 | 0.0 | 0.00 | 0.00 | 0.00 | 83 | 992.7 |
| 20260502164329 | 19 | 158 | 0.0 | 0.0 | 0.00 | 0.00 | 0.00 | 79 | 992.6 |
| 20260502163527 | 19 | 158 | 0.0 | 0.0 | 0.00 | 0.00 | 0.00 | 80 | 992.7 |
| 20260502123525 | 22 | 158 | 0.0 | 0.0 | 0.00 | 0.00 | 0.00 | 69 | 994.2 |
| 20260502114329 | 20 | 170 | 1.6 | 4.8 | 0.00 | 0.00 | 0.00 | 75 | 994.4 |
| 20260502113526 | 20 | 164 | 0.0 | 0.0 | 0.00 | 0.00 | 0.00 | 77 | 994.7 |
| 20260502104329 | 18 | 58 | 0.0 | 0.0 | 0.00 | 0.00 | 0.00 | 72 | 996.2 |
| 20260502103526 | 20 | 158 | 0.0 | 0.0 | 0.00 | 0.00 | 0.00 | 67 | 996.0 |
| 20260502070305 | 18 | 338 | 0.0 | 0.0 | 0.00 | 0.00 | 0.00 | 68 | 995.2 |
| 20260502063524 | 18 | 338 | 0.0 | 0.0 | 0.00 | 0.00 | 0.00 | 69 | 995.2 |
| 20260502060303 | 18 | 338 | 0.0 | 0.0 | 0.00 | 0.00 | 0.00 | 68 | 995.1 |
| 20260502053524 | 18 | 0 | 0.0 | 0.0 | 0.00 | 0.00 | 0.00 | 68 | 995.0 |